Date,TemperatureHighF,TemperatureAvgF,TemperatureLowF,DewpointHighF,DewpointAvgF,DewpointLowF,HumidityHigh,HumidityAvg,HumidityLow,PressureMaxIn,PressureMinIn,WindSpeedMaxMPH,WindSpeedAvgMPH,GustSpeedMaxMPH,PrecipitationSumIn
2013-2-1,88.7,56.0,37.2,67.0,20.1,-38.9,98,65,1,30.06,29.99,5,0,0,0.00
2013-2-2,82.0,60.3,46.4,63.3,19.0,-38.9,98,60,1,30.09,30.00,5,0,0,0.00
2013-2-3,84.9,59.3,43.0,72.2,30.8,-34.6,98,72,1,30.03,29.88,6,1,0,0.00
2013-2-4,79.9,54.2,38.5,72.1,39.2,-32.2,98,83,1,29.97,29.86,5,1,0,0.00
2013-2-5,58.1,48.2,38.8,57.5,47.7,38.3,98,98,98,29.98,29.87,5,1,0,0.00
2013-2-6,72.7,54.0,39.9,67.8,37.3,-38.5,98,80,1,29.99,29.88,6,1,0,0.00
2013-2-7,68.0,49.0,35.2,67.4,48.5,34.7,98,98,98,30.03,29.85,8,2,0,0.00
2013-2-8,55.6,46.0,36.9,55.0,45.5,36.4,98,98,98,29.86,29.73,14,4,0,0.01
2013-2-9,67.6,45.0,28.9,61.8,18.3,-43.5,98,72,1,29.98,29.81,6,1,0,0.01
2013-2-10,65.5,44.3,30.4,64.9,43.8,29.9,98,98,98,29.98,29.88,6,1,0,0.00
2013-2-11,70.2,47.4,29.7,60.7,13.4,-43.0,98,66,1,30.12,29.96,8,2,0,0.00
2013-2-12,75.6,48.1,27.3,59.3,1.1,-49.2,98,53,1,30.23,30.12,7,2,0,0.00
2013-2-13,78.3,49.5,30.4,58.6,15.1,-39.4,98,66,1,30.16,30.02,8,1,0,0.00
2013-2-14,84.0,54.1,32.0,63.8,18.4,-39.3,98,65,1,30.08,29.95,9,1,0,0.00
2013-2-15,83.5,59.3,35.8,82.9,15.4,-48.8,98,57,1,30.10,30.00,12,2,0,0.00
2013-2-16,92.8,59.2,37.2,54.1,-2.3,-50.8,98,41,1,30.06,29.85,8,1,0,0.00
2013-2-17,79.5,52.6,32.9,66.1,24.4,-36.8,98,72,1,29.90,29.79,10,2,0,0.00
2013-2-18,72.7,54.4,42.6,67.4,44.6,-35.9,98,88,1,29.93,29.80,6,2,0,0.00
2013-2-19,58.5,48.8,42.1,57.9,48.3,41.6,98,98,98,29.85,29.58,12,3,0,0.32
2013-2-20,66.2,48.7,35.2,57.1,16.0,-44.7,98,66,1,29.87,29.59,8,3,0,0.00
2013-2-21,72.9,46.9,30.4,61.3,21.8,-43.7,98,73,1,29.98,29.86,8,2,0,0.00
2013-2-22,77.0,50.3,30.7,59.8,8.0,-47.2,98,59,1,30.08,29.99,6,1,0,0.00
2013-2-23,70.7,50.9,32.2,64.9,22.9,-47.5,98,71,1,30.04,29.78,9,2,0,0.00
2013-2-24,70.3,55.6,38.5,50.9,-24.9,-49.0,98,19,1,30.09,29.90,14,4,0,0.00
2013-2-25,79.7,50.4,29.1,79.1,38.0,-43.1,98,85,1,30.11,29.95,9,1,0,0.00
2013-2-26,80.6,56.6,29.3,60.7,5.2,-49.7,98,51,1,30.02,29.87,10,2,0,0.00
2013-2-27,81.3,56.5,34.9,73.7,3.0,-51.1,98,45,1,30.18,30.02,10,2,0,0.00
2013-2-28,88.2,58.9,35.6,86.1,36.0,-50.0,98,68,1,30.22,30.13,8,2,0,0.00